Time,TemperatureF,DewpointF,PressureIn,WindDirection,WindDirectionDegrees,WindSpeedMPH,WindSpeedGustMPH,Humidity,HourlyPrecipIn,Conditions,Clouds,dailyrainin,SoftwareType,DateUTC
2013-01-12 00:07:00,50.1,50.0,30.08,South,185,0.0,2.0,98,0.00,,,0.33,weatherlink.com 1.10,2013-01-12 05:07:00,
2013-01-12 00:22:00,50.0,50.0,30.08,SSW,213,1.0,3.0,98,0.00,,,0.33,weatherlink.com 1.10,2013-01-12 05:22:00,
2013-01-12 00:37:00,49.9,49.0,30.08,SW,233,1.0,3.0,98,0.00,,,0.33,weatherlink.com 1.10,2013-01-12 05:37:00,
2013-01-12 00:52:00,50.0,50.0,30.07,SW,233,0.0,1.0,98,0.00,,,0.33,weatherlink.com 1.10,2013-01-12 05:52:00,
2013-01-12 01:07:00,50.0,50.0,30.07,SW,233,0.0,0.0,98,0.00,,,0.33,weatherlink.com 1.10,2013-01-12 06:07:00,
2013-01-12 01:22:00,50.1,50.0,30.07,SW,233,0.0,0.0,98,0.00,,,0.00,weatherlink.com 1.10,2013-01-12 06:22:00,
2013-01-12 01:37:00,50.3,50.0,30.06,SW,233,0.0,1.0,98,0.00,,,0.00,weatherlink.com 1.10,2013-01-12 06:37:00,
2013-01-12 01:52:00,50.5,50.0,30.06,SW,233,0.0,2.0,98,0.00,,,0.00,weatherlink.com 1.10,2013-01-12 06:52:00,
2013-01-12 02:07:00,50.8,50.0,30.06,SW,233,0.0,0.0,98,0.00,,,0.00,weatherlink.com 1.10,2013-01-12 07:07:00,
2013-01-12 02:22:00,50.9,50.0,30.06,SW,233,0.0,1.0,98,0.00,,,0.00,weatherlink.com 1.10,2013-01-12 07:22:00,
2013-01-12 02:37:00,51.3,51.0,30.07,SW,233,0.0,1.0,98,0.00,,,0.00,weatherlink.com 1.10,2013-01-12 07:37:00,
2013-01-12 02:52:00,51.8,51.0,30.07,SW,233,0.0,0.0,98,0.00,,,0.00,weatherlink.com 1.10,2013-01-12 07:52:00,
2013-01-12 03:07:00,52.1,52.0,30.06,SW,233,0.0,1.0,98,0.00,,,0.00,weatherlink.com 1.10,2013-01-12 08:07:00,
2013-01-12 03:22:00,52.4,52.0,30.05,SW,233,0.0,0.0,98,0.00,,,0.00,weatherlink.com 1.10,2013-01-12 08:22:00,
2013-01-12 03:37:00,53.2,53.0,30.05,WSW,248,4.0,4.0,98,0.00,,,0.00,weatherlink.com 1.10,2013-01-12 08:37:00,
2013-01-12 03:52:00,54.3,54.0,30.04,WSW,244,3.0,5.0,98,0.00,,,0.00,weatherlink.com 1.10,2013-01-12 08:52:00,
2013-01-12 04:07:00,55.3,55.0,30.03,WSW,244,2.0,6.0,98,0.00,,,0.00,weatherlink.com 1.10,2013-01-12 09:07:00,
2013-01-12 04:22:00,55.4,55.0,30.04,West,278,3.0,5.0,98,0.00,,,0.00,weatherlink.com 1.10,2013-01-12 09:22:00,
2013-01-12 04:37:00,54.7,54.0,30.04,WNW,284,2.0,4.0,98,0.00,,,0.00,weatherlink.com 1.10,2013-01-12 09:37:00,
2013-01-12 04:52:00,54.2,54.0,30.04,West,274,1.0,3.0,98,0.00,,,0.00,weatherlink.com 1.10,2013-01-12 09:52:00,
2013-01-12 05:07:00,53.9,53.0,30.03,West,274,0.0,1.0,98,0.00,,,0.00,weatherlink.com 1.10,2013-01-12 10:07:00,
2013-01-12 05:22:00,54.0,54.0,30.03,West,274,2.0,2.0,98,0.00,,,0.00,weatherlink.com 1.10,2013-01-12 10:22:00,
2013-01-12 05:38:00,54.0,54.0,30.03,NNE,24,0.0,3.0,98,0.00,,,0.00,weatherlink.com 1.10,2013-01-12 10:38:00,
2013-01-12 05:53:00,54.0,54.0,30.03,NNE,24,0.0,1.0,98,0.00,,,0.00,weatherlink.com 1.10,2013-01-12 10:53:00,
2013-01-12 06:08:00,54.2,54.0,30.03,NNE,24,1.0,2.0,98,0.00,,,0.00,weatherlink.com 1.10,2013-01-12 11:08:00,
2013-01-12 06:23:00,54.6,54.0,30.04,NNE,24,0.0,1.0,98,0.00,,,0.00,weatherlink.com 1.10,2013-01-12 11:23:00,
2013-01-12 06:38:00,54.9,54.0,30.04,NNE,24,1.0,2.0,98,0.00,,,0.00,weatherlink.com 1.10,2013-01-12 11:38:00,
2013-01-12 06:53:00,55.0,55.0,30.04,NNE,24,0.0,0.0,98,0.00,,,0.00,weatherlink.com 1.10,2013-01-12 11:53:00,
2013-01-12 07:08:00,54.8,54.0,30.05,NNE,24,0.0,1.0,98,0.00,,,0.00,weatherlink.com 1.10,2013-01-12 12:08:00,
2013-01-12 07:23:00,55.2,55.0,30.05,NNE,24,0.0,2.0,98,0.00,,,0.00,weatherlink.com 1.10,2013-01-12 12:23:00,
2013-01-12 07:38:00,55.3,55.0,30.05,NNE,24,0.0,3.0,98,0.00,,,0.00,weatherlink.com 1.10,2013-01-12 12:38:00,
2013-01-12 07:53:00,55.3,55.0,30.05,NNE,24,0.0,1.0,98,0.00,,,0.00,weatherlink.com 1.10,2013-01-12 12:53:00,
2013-01-12 08:08:00,55.3,55.0,30.06,NNE,24,0.0,0.0,98,0.00,,,0.00,weatherlink.com 1.10,2013-01-12 13:08:00,
2013-01-12 08:23:00,55.9,55.0,30.06,NNE,24,0.0,2.0,98,0.00,,,0.00,weatherlink.com 1.10,2013-01-12 13:23:00,
2013-01-12 08:38:00,56.2,56.0,30.06,NNE,24,0.0,1.0,99,0.00,,,0.00,weatherlink.com 1.10,2013-01-12 13:38:00,
2013-01-12 08:53:00,56.8,57.0,30.07,NNE,24,1.0,1.0,99,0.00,,,0.00,weatherlink.com 1.10,2013-01-12 13:53:00,
2013-01-12 09:08:00,57.4,57.0,30.07,NNE,24,0.0,0.0,99,0.00,,,0.00,weatherlink.com 1.10,2013-01-12 14:08:00,
2013-01-12 09:23:00,57.9,58.0,30.06,NNE,24,0.0,2.0,99,0.00,,,0.00,weatherlink.com 1.10,2013-01-12 14:23:00,
2013-01-12 09:38:00,58.2,58.0,30.07,East,88,0.0,2.0,99,0.00,,,0.00,weatherlink.com 1.10,2013-01-12 14:38:00,
2013-01-12 09:53:00,58.3,58.0,30.07,East,88,3.0,3.0,99,0.00,,,0.00,weatherlink.com 1.10,2013-01-12 14:53:00,
2013-01-12 10:08:00,58.5,58.0,30.07,WNW,288,0.0,1.0,99,0.00,,,0.00,weatherlink.com 1.10,2013-01-12 15:08:00,
2013-01-12 10:23:00,58.5,58.0,30.08,SSW,199,2.0,3.0,99,0.00,,,0.00,weatherlink.com 1.10,2013-01-12 15:23:00,
2013-01-12 10:38:00,58.7,59.0,30.08,SW,229,0.0,2.0,99,0.00,,,0.00,weatherlink.com 1.10,2013-01-12 15:38:00,
2013-01-12 10:53:00,58.9,59.0,30.07,SSW,200,1.0,2.0,99,0.00,,,0.00,weatherlink.com 1.10,2013-01-12 15:53:00,
2013-01-12 11:08:00,59.1,59.0,30.07,SSW,200,0.0,2.0,99,0.00,,,0.00,weatherlink.com 1.10,2013-01-12 16:08:00,
2013-01-12 11:23:00,59.6,59.0,30.06,SSW,200,1.0,3.0,99,0.00,,,0.00,weatherlink.com 1.10,2013-01-12 16:23:00,
2013-01-12 11:38:00,60.0,60.0,30.05,SW,220,1.0,3.0,99,0.00,,,0.00,weatherlink.com 1.10,2013-01-12 16:38:00,
2013-01-12 11:53:00,60.3,60.0,30.05,WSW,240,3.0,3.0,99,0.00,,,0.00,weatherlink.com 1.10,2013-01-12 16:53:00,
2013-01-12 12:08:00,60.8,61.0,30.04,SW,220,0.0,2.0,99,0.01,,,0.01,weatherlink.com 1.10,2013-01-12 17:08:00,
2013-01-12 12:23:00,60.9,61.0,30.04,SSW,210,2.0,4.0,99,0.01,,,0.01,weatherlink.com 1.10,2013-01-12 17:23:00,
2013-01-12 12:38:00,61.3,61.0,30.04,West,269,2.0,3.0,99,0.01,,,0.01,weatherlink.com 1.10,2013-01-12 17:38:00,
2013-01-12 12:53:00,62.0,62.0,30.03,West,269,0.0,2.0,98,0.00,,,0.01,weatherlink.com 1.10,2013-01-12 17:53:00,
2013-01-12 13:08:00,62.7,62.0,30.02,South,178,0.0,1.0,97,0.00,,,0.01,weatherlink.com 1.10,2013-01-12 18:08:00,
2013-01-12 13:23:00,63.5,62.0,30.02,NNW,330,0.0,3.0,95,0.00,,,0.01,weatherlink.com 1.10,2013-01-12 18:23:00,
2013-01-12 13:38:00,64.5,63.0,30.02,WSW,240,2.0,2.0,94,0.00,,,0.01,weatherlink.com 1.10,2013-01-12 18:38:00,
2013-01-12 13:53:00,66.2,63.0,30.02,SW,226,3.0,6.0,90,0.00,,,0.01,weatherlink.com 1.10,2013-01-12 18:53:00,
2013-01-12 14:08:00,67.2,64.0,30.02,SSW,213,3.0,5.0,88,0.00,,,0.01,weatherlink.com 1.10,2013-01-12 19:08:00,
2013-01-12 14:23:00,67.7,64.0,30.02,SSW,194,2.0,5.0,87,0.00,,,0.01,weatherlink.com 1.10,2013-01-12 19:23:00,
2013-01-12 14:38:00,68.1,64.0,30.02,SW,219,2.0,6.0,86,0.00,,,0.01,weatherlink.com 1.10,2013-01-12 19:38:00,
2013-01-12 14:53:00,68.3,64.0,30.01,SW,216,0.0,4.0,86,0.00,,,0.01,weatherlink.com 1.10,2013-01-12 19:53:00,
2013-01-12 15:08:00,68.8,64.0,30.01,SSW,199,1.0,5.0,85,0.00,,,0.01,weatherlink.com 1.10,2013-01-12 20:08:00,
2013-01-12 15:23:00,69.2,65.0,30.01,South,188,2.0,4.0,85,0.00,,,0.01,weatherlink.com 1.10,2013-01-12 20:23:00,
2013-01-12 15:39:00,69.5,65.0,30.01,SSW,198,1.0,3.0,84,0.00,,,0.01,weatherlink.com 1.10,2013-01-12 20:39:00,
2013-01-12 15:54:00,69.8,65.0,30.00,SSW,192,1.0,3.0,84,0.00,,,0.01,weatherlink.com 1.10,2013-01-12 20:54:00,
2013-01-12 16:09:00,69.8,64.0,30.01,SSW,203,2.0,3.0,83,0.00,,,0.01,weatherlink.com 1.10,2013-01-12 21:09:00,
2013-01-12 16:24:00,69.8,64.0,30.00,SW,234,0.0,3.0,81,0.00,,,0.01,weatherlink.com 1.10,2013-01-12 21:24:00,
2013-01-12 16:39:00,69.6,64.0,30.00,SW,234,0.0,1.0,82,0.00,,,0.01,weatherlink.com 1.10,2013-01-12 21:39:00,
2013-01-12 16:54:00,69.5,64.0,30.00,SSW,211,0.0,1.0,82,0.00,,,0.01,weatherlink.com 1.10,2013-01-12 21:54:00,
2013-01-12 17:09:00,69.3,64.0,30.00,SSW,211,0.0,1.0,82,0.00,,,0.01,weatherlink.com 1.10,2013-01-12 22:09:00,
2013-01-12 17:24:00,67.9,64.0,30.00,SSW,211,1.0,1.0,86,0.00,,,0.01,weatherlink.com 1.10,2013-01-12 22:24:00,
2013-01-12 17:39:00,66.0,62.0,30.00,SSW,211,0.0,1.0,87,0.00,,,0.01,weatherlink.com 1.10,2013-01-12 22:39:00,
2013-01-12 17:54:00,65.0,61.0,30.00,South,181,2.0,3.0,88,0.00,,,0.01,weatherlink.com 1.10,2013-01-12 22:54:00,
2013-01-12 18:09:00,65.6,61.0,30.00,SSW,194,0.0,4.0,84,0.00,,,0.01,weatherlink.com 1.10,2013-01-12 23:09:00,
2013-01-12 18:24:00,65.3,60.0,30.00,SSW,194,0.0,2.0,83,0.00,,,0.01,weatherlink.com 1.10,2013-01-12 23:24:00,
2013-01-12 18:39:00,64.0,60.0,30.01,SSW,194,0.0,1.0,85,0.00,,,0.01,weatherlink.com 1.10,2013-01-12 23:39:00,
2013-01-12 18:54:00,63.9,59.0,30.01,South,183,0.0,2.0,84,0.00,,,0.01,weatherlink.com 1.10,2013-01-12 23:54:00,
2013-01-12 19:09:00,63.7,59.0,30.00,South,183,0.0,1.0,84,0.00,,,0.01,weatherlink.com 1.10,2013-01-13 00:09:00,
2013-01-12 19:24:00,62.3,59.0,30.01,South,183,0.0,1.0,88,0.00,,,0.01,weatherlink.com 1.10,2013-01-13 00:24:00,
2013-01-12 19:39:00,61.2,58.0,30.01,South,183,0.0,0.0,90,0.00,,,0.01,weatherlink.com 1.10,2013-01-13 00:39:00,
2013-01-12 19:54:00,60.4,58.0,30.01,South,183,0.0,1.0,91,0.00,,,0.01,weatherlink.com 1.10,2013-01-13 00:54:00,
2013-01-12 20:09:00,59.6,58.0,30.01,South,183,0.0,0.0,93,0.00,,,0.01,weatherlink.com 1.10,2013-01-13 01:09:00,
2013-01-12 20:24:00,59.2,57.0,30.00,South,183,0.0,0.0,93,0.00,,,0.01,weatherlink.com 1.10,2013-01-13 01:24:00,
2013-01-12 20:39:00,58.7,57.0,30.01,South,183,0.0,0.0,94,0.00,,,0.01,weatherlink.com 1.10,2013-01-13 01:39:00,
2013-01-12 20:54:00,58.4,57.0,30.00,South,183,0.0,1.0,95,0.00,,,0.01,weatherlink.com 1.10,2013-01-13 01:54:00,
2013-01-12 21:09:00,58.3,57.0,30.00,South,183,0.0,1.0,95,0.00,,,0.01,weatherlink.com 1.10,2013-01-13 02:09:00,
2013-01-12 21:24:00,57.7,56.0,30.00,South,183,0.0,0.0,95,0.00,,,0.01,weatherlink.com 1.10,2013-01-13 02:24:00,
2013-01-12 21:39:00,57.1,56.0,30.00,South,183,0.0,1.0,95,0.00,,,0.01,weatherlink.com 1.10,2013-01-13 02:39:00,
2013-01-12 21:54:00,56.7,56.0,30.00,South,183,0.0,1.0,96,0.00,,,0.01,weatherlink.com 1.10,2013-01-13 02:54:00,
2013-01-12 22:09:00,56.4,56.0,29.99,South,183,1.0,1.0,97,0.00,,,0.01,weatherlink.com 1.10,2013-01-13 03:09:00,
2013-01-12 22:24:00,56.0,55.0,30.00,South,183,1.0,2.0,96,0.00,,,0.01,weatherlink.com 1.10,2013-01-13 03:24:00,
2013-01-12 22:39:00,55.5,54.0,30.00,South,183,0.0,0.0,96,0.00,,,0.01,weatherlink.com 1.10,2013-01-13 03:39:00,
2013-01-12 22:54:00,54.9,54.0,29.99,South,178,1.0,2.0,96,0.00,,,0.01,weatherlink.com 1.10,2013-01-13 03:54:00,
2013-01-12 23:09:00,55.8,55.0,29.99,ENE,74,1.0,3.0,97,0.00,,,0.01,weatherlink.com 1.10,2013-01-13 04:09:00,
2013-01-12 23:24:00,54.9,54.0,30.00,ENE,74,0.0,2.0,97,0.00,,,0.01,weatherlink.com 1.10,2013-01-13 04:24:00,
2013-01-12 23:39:00,55.3,55.0,30.00,ENE,74,1.0,2.0,97,0.00,,,0.01,weatherlink.com 1.10,2013-01-13 04:39:00,
2013-01-12 23:54:00,55.8,55.0,29.99,ENE,74,0.0,1.0,98,0.00,,,0.01,weatherlink.com 1.10,2013-01-13 04:54:00,